Overview Statistics Trail Chart Weather Telemetry Raw packets
 

This is the latest recevied weather packets stored in our database for station/object KI6PPU. If no packets are shown the sender has not sent any weather packets the latest 10 day(s).

<< 3 4 5 6 7 8 9 >>
Time Temp. Humidity Pressure Rain* Wind** Luminosity Snow
1788542838 16.11° C 90% 1017.3 hPa 0 mm - 187 W/m² -
1788542536 16.11° C 91% 1017.2 hPa 0 mm - 185 W/m² -
1788542232 15.56° C 90% 1017.2 hPa 0 mm - 191 W/m² -
1788541927 16.11° C 91% 1017.1 hPa 0 mm - 154 W/m² -
1788541623 15.56° C 92% 1017.2 hPa 0 mm - 175 W/m² -
1788541343 15.56° C 92% 1017.2 hPa 0 mm - 150 W/m² -
1788541017 15.56° C 92% 1017.2 hPa 0 mm - 130 W/m² -
1788540717 15° C 92% 1017.1 hPa 0 mm - 95 W/m² -
1788540412 15° C 93% 1017 hPa 0 mm - 94 W/m² -
1788540107 15.56° C 94% 1016.9 hPa 0 mm - 98 W/m² -
1788539802 15° C 94% 1016.8 hPa 0 mm - 91 W/m² -
1788539492 15° C 94% 1016.9 hPa 0 mm - 106 W/m² -
1788539191 15° C 94% 1016.8 hPa 0 mm - 99 W/m² -
1788538886 15° C 94% 1016.7 hPa 0 mm - 100 W/m² -
1788538582 14.44° C 95% 1016.9 hPa 0 mm - 88 W/m² -
1788538277 15° C 95% 1016.6 hPa 0 mm - 77 W/m² -
1788537972 15° C 95% 1016.6 hPa 0 mm - 69 W/m² -
1788537668 14.44° C 95% 1016.7 hPa 0 mm - 66 W/m² -
1788537368 15° C 95% 1016.8 hPa 0 mm - 71 W/m² -
1788537056 14.44° C 96% 1016.6 hPa 0 mm - 70 W/m² -
1788536750 14.44° C 95% 1016.7 hPa 0 mm - 49 W/m² -
1788536445 14.44° C 95% 1016.6 hPa 0 mm - 33 W/m² -
1788536144 14.44° C 95% 1016.6 hPa 0 mm - 28 W/m² -
1788535841 14.44° C 96% 1016.8 hPa 0 mm - 23 W/m² -
1788535536 14.44° C 96% 1016.6 hPa 0 mm - 13 W/m² -

* Rain latest hour (hover to see other rain measurements)
** Current wind speed in m/s (hover to see current wind gust speed)